Home > Weather > Stanley > Past weeks

Flag for Falkland Islands Past Weather in Stanley, Falkland Islands — Yesterday and Last 2 Weeks

Now
43 °F

Passing clouds.


Feels Like: 34 °F
Forecast: 39 / 45 °F
Wind: 21 mph from Northwest

Location: Mount Pleasant Airport

Current Time: Jul 30, 2016 at 2:32:30 AM

Latest Report: Jul 30, 2016 at 1:50 AM


Visibility: N/A

Pressure: 29.71 "Hg

Humidity: 81%

Dew Point: 37 °F

Location of StanleyLocation

Past Weather in Stanley — Graph

°F

Stanley Temperature Yesterday

Maximum temperature yesterday: 43 °F (at 10:50 PM)
Minimum temperature yesterday: 32 °F (at 12:50 AM)
Average temperature yesterday: 38 °F

High & Low Weather Summary for the Past Weeks

 TemperatureHumidityPressure
High46 °F (Jul 21, 12:50 PM)100% (Jul 15, 3:50 AM)30.54 "Hg (Jul 15, 3:50 AM)
Low28 °F (Jul 23, 10:50 PM)53% (Jul 22, 1:50 PM)29.47 "Hg (Jul 21, 4:50 AM)
Average37 °F85%30.04 "Hg
* Reported Jul 15 12:50 AM — Jul 30 12:50 AM, Stanley, Weather by CustomWeather, © 2016

Note: Actual official high and low records may vary slightly from our data, if they occured in-between our weather recording intervals... More about our weather records

Advertising

Stanley Weather History for the Previous 24 Hours

Scroll right to see more
 ConditionsComfort  
Time TempWeatherWind HumidityBarometerVisibility
12:50 AM
Sat, Jul 30
43 °FPassing clouds.18 mph81%29.74 "HgN/A
11:50 PM
Fri, Jul 29
43 °FPassing clouds.12 mph87%29.74 "HgN/A
10:50 PM43 °FPassing clouds.28 mph87%29.71 "HgN/A
9:50 PM41 °FPassing clouds.16 mph100%29.74 "Hg5 mi
8:50 PM41 °FPassing clouds.23 mph93%29.74 "HgN/A
7:50 PM41 °FLight rain. Partly cloudy.23 mph93%29.74 "HgN/A
6:50 PM41 °FLight rain. Partly cloudy.31 mph93%29.74 "HgN/A
5:50 PM41 °FLight rain. Passing clouds.26 mph87%29.77 "HgN/A
4:50 PM41 °FDrizzle. Partly sunny.30 mph93%29.80 "Hg5 mi
3:50 PM41 °FDrizzle. Broken clouds.16 mph93%29.83 "Hg5 mi
2:50 PM39 °FDrizzle. Low clouds.14 mph93%29.89 "Hg4 mi
1:50 PM39 °FDrizzle. Low clouds.22 mph93%29.89 "Hg4 mi
12:50 PM39 °FDrizzle. More clouds than sun.23 mph93%29.92 "Hg4 mi
11:50 AM37 °FDrizzle. Low clouds.17 mph93%29.95 "Hg4 mi
10:50 AM37 °FDrizzle. Low clouds.17 mph87%29.98 "HgN/A
9:50 AM36 °FDrizzle. Partly sunny.13 mph93%30.01 "Hg4 mi
8:50 AM36 °FDrizzle. Partly sunny.13 mph93%30.01 "HgN/A
7:50 AM34 °FPassing clouds.8 mph93%30.04 "HgN/A
6:50 AM34 °FLight rain. Passing clouds.13 mph93%30.04 "Hg6 mi
5:50 AM34 °FMostly cloudy.7 mph93%30.07 "HgN/A
4:50 AM34 °FLight snow. Mostly cloudy.18 mph87%30.09 "HgN/A
3:50 AM34 °FLight snow. Mostly cloudy.20 mph87%30.12 "Hg3 mi
2:50 AM32 °FSnow flurries. Passing clouds.18 mph93%30.12 "HgN/A
Weather by CustomWeather, © 2016

See weather overviewHow to use our weather pages